sat.trackr.live / text

‹ back to catalog

ONEWEB-0184

NORAD 48211 · 2021-031B

PAYLOAD ACTIVE UNKNOWN

§ Identity

Operator
Country
UK
Launch date
2021-04-25
Launch site
VOSTO
Launch vehicle
Mass (kg)
RCS (m²)

Purposes: comms

External: N2YO · Heavens-Above · Gunter

§ Orbital elements

Epoch: 2026-09-14T17:50:07.976832Z

Period
109.55 min
Inclination
87.8898°
Eccentricity
0.0002008
Mean motion
13.14503829 rev/d
Perigee alt
1,204.3 km
Apogee alt
1,207.3 km
Semi-major
7,583.9 km
B*
-5.7160e-5
RAAN
271.8443°
Arg perigee
70.5920°
Mean anomaly
289.5426°
Rev number
26,005

§ Raw data

ONEWEB-01841 48211U 21031B   26257.74314788 -.00000008  00000+0 -57160-4 0  99992 48211  87.8898 271.8443 0002008  70.5920 289.5426 13.14503829260053

JSON: /api/v1/satellites/48211 · /tle

For live sub-satellite position, see the globe view (requires WebGL).

§ Visibility from observer

Set your observer location to see the next 7 days of passes ≥ 10°. The values pass through the URL so the page stays shareable.

No JS? Fill the form by hand. The geolocation button needs JavaScript.